This demonstration page uses our WeatherBlox Daily Observations layout. Learn more.

Left ArrowRight Arrow

41.55636, -103.73856

Hourly Observations for February 8, 2018

Temp ( °F °C ) Dew Point ( °F °C ) Humidity (%) Winds ( mph kmh ) Pressure ( in mb ) Visibility ( mi km ) Precip ( " mm )
12:53 am 00:53 Clear 31 -0.6 28 -2.2 89 89 ENE 3 6 30.19 1023 10 16 N/A
1:53 am 01:53 Clear 28 -2.2 26 -3.3 92 92 N 3 6 30.18 1022 10 16 N/A
2:53 am 02:53 Clear 28 -2.2 26 -3.3 92 92 ESE 3 6 30.16 1022 10 16 N/A
3:53 am 03:53 Clear 33 0.6 29 -1.7 85 85 W 5 7 30.14 1021 10 16 N/A
4:53 am 04:53 Clear 36 2.2 29 -1.7 76 76 WNW 8 13 30.13 1020 10 16 N/A
5:53 am 05:53 Clear 43 6.1 30 -1.1 60 60 W 13 20 30.10 1019 10 16 N/A
6:53 am 06:53 Clear 42 5.6 30 -1.1 62 62 W 10 17 30.11 1020 10 16 N/A
7:53 am 07:53 Sunny 43 6.1 31 -0.6 63 63 W 12 19 30.11 1020 10 16 N/A
8:53 am 08:53 Sunny 47 8.3 31 -0.6 54 54 W 17 28 30.08 1019 10 16 N/A
9:53 am 09:53 Sunny 50 10 31 -0.6 48 48 W 21 33 30.04 1017 10 16 N/A
10:53 am 10:53 Sunny 52 11.1 33 0.6 49 49 WNW 21 33 30.01 1016 10 16 N/A
11:53 am 11:53 Sunny 55 12.8 33 0.6 44 44 W 18 30 29.97 1015 10 16 N/A
12:53 pm 12:53 Sunny 56 13.3 33 0.6 42 42 W 18 30 29.92 1013 10 16 N/A
1:53 pm 13:53 Sunny 54 12.2 32 undefined 43 43 W 21 33 29.91 1013 10 16 N/A
2:53 pm 14:53 Sunny 53 11.7 33 0.6 47 47 W 16 26 29.91 1013 10 16 N/A
3:53 pm 15:53 Sunny 51 10.6 32 undefined 48 48 W 13 20 29.90 1012 10 16 N/A
4:53 pm 16:53 Sunny 50 10 32 undefined 50 50 W 12 19 29.89 1012 10 16 N/A
5:53 pm 17:53 Clear 47 8.3 32 undefined 56 56 WNW 8 13 29.88 1012 10 16 N/A
6:53 pm 18:53 Clear 42 5.6 32 undefined 68 68 W 8 13 29.90 1013 10 16 N/A
7:53 pm 19:53 Clear 44 6.7 32 undefined 63 63 W 7 11 29.89 1012 10 16 N/A
8:53 pm 20:53 Clear 40 4.4 31 -0.6 70 70 N N/A 29.89 1012 10 16 N/A
9:53 pm 21:53 Cloudy 37 2.8 31 -0.6 79 79 NE 13 20 29.94 1014 10 16 N/A
10:27 pm 22:27 Partly Cloudy 27 -2.8 24 -4.4 89 89 NNE 16 26 30.15 1021 10 16 N/A
10:38 pm 22:38 Mostly Cloudy 25 -4 21 -6 86 86 NE 18 30 30.21 1023 10 16 N/A
10:53 pm 22:53 Cloudy 23 -5 20 -6.7 88 88 NE 14 22 30.08 1019 10 16 N/A
11:40 pm 23:40 Cloudy 19 -7 16 -9 86 86 NNE 20 31 30.33 1027 10 16 N/A
11:53 pm 23:53 Cloudy 19 -7.2 14 -10 81 81 NNE 13 20 30.14 1021 9 14 N/A

Powered by AerisWeather